Regional Weather Roundup
Issued by NWS

Home | Current Version | Previous Version | Text Only | Print | Product List | Glossary Off
Versions: 1 2 3 4 5 6 7 8 9 10 11 12 13 14 15 16 17 18 19 20 21 22 23 24 25 26 27 28 29 30 31 32 33 34 35 36 37 38 39 40 41 42 43 44 45 46 47 48 49 50

000
ASUS45 KSLC 010810
RWRUT

UTAH REGIONAL WEATHER ROUNDUP
NATIONAL WEATHER SERVICE SALT LAKE CITY UT
200 AM MDT FRI AUG 01 2014

UTZ001>011-023>025-010900-

NORTHERN UTAH

CITY           SKY/WX    TMP DP  RH WIND       PRES   REMARKS
HILL AFB       MOCLDY    67  51  55 E12       30.16F
LOGAN          CLEAR     60  52  74 CALM      30.16R
OGDEN          PTCLDY    67  50  54 S9        30.14S
PROVO AIRPORT  MOCLDY    68  55  64 SE5       30.17F
SALT LAKE CITY PTCLDY    70  53  54 SE6       30.12F
VERNAL         PTCLDY    63  44  50 NW5       30.17F
WENDOVER       PTCLDY    66  45  45 E5        30.14S
HEBER CITY     PTCLDY    57  54  88 CALM      30.24S
WEST JORDAN    CLEAR     68  55  64 CALM      30.16F

$$

UTZ012>022-026-027-010900-

SOUTHERN UTAH

CITY           SKY/WX    TMP DP  RH WIND       PRES   REMARKS
BRYCE CANYON   CLOUDY    54  51  90 CALM      30.38S
CEDAR CITY     MOCLDY    60  52  74 SW6       30.21F
MILFORD        MOCLDY    60  54  80 CALM      30.17F
MOAB/CYNLANDS  CLEAR     65  59  81 NW13G18   30.13S
PRICE          MOCLDY    61  50  67 NE7       30.23F
ST GEORGE      MOSUNNY   81  52  36 NE7       30.05R
KANAB            N/A     64  54  68 S3        30.23S

$$

REGIONAL REPORTS     COLORADO/ARIZONA

CITY           SKY/WX    TMP DP  RH WIND       PRES   REMARKS
CRAIG, CO      CLOUDY    55  49  80 E9        30.24F
GRAND JUNCTION CLOUDY    73  49  42 N8        30.13F
RIFLE          CLOUDY    65  50  58 SE3       30.19F
MONTROSE       MOCLDY    69  50  50 SE5       30.23R
CORTEZ         CLEAR     66  51  58 VRB5      30.26S
PAGE, AZ       CLOUDY    76  49  38 NW8       30.18R
GRAND CANYON   CLOUDY    58  52  80 NE5       30.33R
KINGMAN        MOCLDY    84  50  30 E12       30.03S
FLAGSTAFF      CLOUDY    55  53  93 CALM      30.34F

$$

REGIONAL REPORTS    NEVADA/IDAHO/WYOMING

CITY           SKY/WX    TMP DP  RH WIND       PRES   REMARKS
LAS VEGAS, NV  PTCLDY    93  49  22 NE6       29.86R HX  90
ELY            PTCLDY    51  44  77 NW6       30.29S
ELKO           MOCLDY    57  51  80 NW5       30.22R
POCATELLO, ID  CLEAR     67  51  56 SE7       30.15F
BURLEY         MOCLDY    65  49  56 CALM      30.13F
EVANSTON, WY   PTCLDY    58  41  53 SE6       30.32F
ROCK SPRINGS   PTCLDY    63  34  33 N5        30.30F

$$



USA.gov is the U.S. government's official web portal to all federal, state and local government web resources and services.